TimePST,TemperatureF,Dew PointF,Humidity,Sea Level PressureIn,VisibilityMPH,Wind Direction,Wind SpeedMPH,Gust SpeedMPH,PrecipitationIn,Events,Conditions,WindDirDegrees,DateUTC
12:53 AM,53.1,36.0,52,29.71,10.0,WSW,19.6,24.2,N/A,,Mostly Cloudy,250,2013-02-20 08:53:00
1:53 AM,52.0,37.0,57,29.67,10.0,West,11.5,-,0.00,,Mostly Cloudy,260,2013-02-20 09:53:00
2:53 AM,48.9,42.1,77,29.68,10.0,WSW,10.4,-,0.01,,Overcast,250,2013-02-20 10:53:00
3:53 AM,45.0,39.9,82,29.69,10.0,West,6.9,-,N/A,,Scattered Clouds,260,2013-02-20 11:53:00
4:53 AM,44.1,37.9,79,29.71,10.0,West,6.9,-,N/A,,Clear,260,2013-02-20 12:53:00
5:53 AM,46.9,36.0,66,29.69,10.0,SW,13.8,-,N/A,,Clear,230,2013-02-20 13:53:00
6:53 AM,45.0,35.1,68,29.72,10.0,WSW,12.7,-,N/A,,Clear,240,2013-02-20 14:53:00
7:53 AM,48.0,35.1,61,29.74,10.0,WSW,16.1,-,N/A,,Partly Cloudy,240,2013-02-20 15:53:00
8:53 AM,51.1,34.0,52,29.75,10.0,WSW,15.0,-,N/A,,Partly Cloudy,250,2013-02-20 16:53:00
9:53 AM,54.0,32.0,43,29.76,10.0,West,15.0,23.0,N/A,,Clear,270,2013-02-20 17:53:00
10:53 AM,55.4,28.4,36,29.76,10.0,West,15.0,21.9,N/A,,Clear,270,2013-02-20 18:53:00
11:53 AM,59.0,27.0,29,29.76,10.0,WNW,17.3,24.2,N/A,,Scattered Clouds,300,2013-02-20 19:53:00
12:53 PM,59.0,27.0,29,29.76,10.0,NW,12.7,-,N/A,,Overcast,310,2013-02-20 20:53:00
1:53 PM,59.0,28.4,31,29.78,10.0,West,11.5,24.2,N/A,,Overcast,280,2013-02-20 21:53:00
2:53 PM,61.0,28.9,30,29.77,10.0,WNW,11.5,19.6,N/A,,Scattered Clouds,300,2013-02-20 22:53:00
3:53 PM,61.0,30.0,31,29.79,10.0,WNW,12.7,-,N/A,,Clear,300,2013-02-20 23:53:00
4:53 PM,57.9,30.9,36,29.81,10.0,WSW,19.6,-,N/A,,Clear,250,2013-02-21 00:53:00
5:53 PM,55.0,33.1,43,29.84,10.0,WSW,18.4,25.3,N/A,,Clear,250,2013-02-21 01:53:00
6:53 PM,54.0,34.0,47,29.86,10.0,WSW,17.3,-,N/A,,Clear,250,2013-02-21 02:53:00
7:53 PM,53.1,34.0,48,29.88,10.0,West,16.1,25.3,N/A,,Clear,260,2013-02-21 03:53:00
8:53 PM,51.1,33.1,50,29.91,10.0,WSW,12.7,-,N/A,,Clear,240,2013-02-21 04:53:00
9:53 PM,50.0,32.0,50,29.92,10.0,WSW,9.2,-,N/A,,Clear,250,2013-02-21 05:53:00
11:53 PM,48.0,30.9,52,29.93,10.0,WSW,12.7,-,N/A,,Clear,250,2013-02-21 07:53:00